#timestamp,LO_Frequency,Hit,StdDev 
1553216415.3,286047000.6,N
1553216435.2,286047002.4,N
1553216455.0,286047000.5,N
1553216455.9,286047000.5,N
1553216475.8,286046998.2,N
1553216495.6,286046999.9,N
1553216515.4,286047002.2,N
1553216535.3,286047004.1,N
1553216555.1,286047002.5,N
1553216575.8,286047004.0,N
1553216595.7,286047001.8,N
1553216615.5,286047002.6,N
1553216635.4,286047002.4,N
1553216655.2,286047003.3,N
1553216675.0,286047001.2,N
1553216675.9,286047001.2,N
1553216695.8,286046998.2,N
1553216715.6,286047001.1,N
1553216735.5,286046998.2,N
1553216755.3,286046998.2,N
1553216775.1,286046998.5,N
1553216795.9,286046998.1,N
1553216815.7,286046999.2,N
1553216835.5,286046996.5,N
1553216855.4,286047000.8,N
1553216875.2,286047000.7,N
1553216895.1,286046998.6,N
1553216896.0,286046998.6,N
1553216915.8,286047001.9,N
1553216935.6,286047003.7,N
1553216955.5,286046999.7,N
1553216975.3,286047002.5,N
1553216995.1,286047003.9,N
1553217015.9,286047001.4,N
1553217035.7,286047003.1,N
1553217055.6,286047003.3,N
1553217075.4,286047002.5,N
1553217095.2,286047002.2,N
1553217115.1,286047002.5,N
1553217116.0,286047002.5,N
1553217135.8,286047001.5,N
1553217155.6,286047004.3,N
1553217175.5,286047001.7,N
1553217195.3,286047002.3,N
1553217215.2,286046998.1,N
1553217235.9,286046997.0,N
1553217255.7,286046996.6,N
1553217275.6,286046998.5,N
1553217295.4,286046998.5,N
1553217315.2,286047001.0,N
1553217335.1,286047003.1,N
1553217336.0,286047003.1,N
1553217355.8,286046999.8,N
1553217375.7,286047000.9,N
1553217395.5,286047001.0,N
1553217415.3,286047002.8,N
1553217435.2,286047000.0,N
1553217455.0,286047000.4,N
1553217455.9,286047000.4,N
1553217475.7,286047000.0,N
1553217495.6,286047000.7,N
1553217515.4,286046998.6,N
1553217535.3,286046998.6,N
1553217555.1,286047000.7,N
1553217575.8,286047001.5,N
1553217595.7,286046999.8,N
1553217615.5,286047001.7,N
1553217635.4,286047003.0,N
1553217655.2,286047003.3,N
1553217675.0,286047001.5,N
1553217675.9,286047001.5,N
1553217695.8,286047001.4,N
1553217715.6,286047004.2,N
1553217735.4,286047001.3,N
1553217755.3,286047004.3,N
1553217775.1,286047001.5,N
1553217795.9,286046999.7,N
1553217815.7,286046999.7,N
1553217835.5,286047001.8,N
1553217855.4,286047000.3,N
1553217875.2,286047002.7,N
1553217895.0,286047002.8,N
1553217895.9,286047002.8,N
1553217915.8,286047002.6,N
1553217935.6,286047002.1,N
1553217955.5,286046999.7,N
1553217975.3,286047001.0,N
1553217995.1,286046999.7,N
1553218015.9,286047002.8,N
1553218035.7,286047002.0,N
1553218055.6,286047000.8,N
1553218075.4,286046998.1,N
1553218095.2,286046997.1,N
1553218115.1,286046999.3,N
1553218116.0,286046999.3,N
1553218135.8,286046999.1,N
1553218155.6,286047000.9,N
1553218175.5,286047000.3,N
1553218195.3,286046999.8,N
1553218215.2,286047003.5,N
1553218235.0,286047005.7,Y
1553218235.9,286047005.7,P
1553218255.7,286047002.9,N
1553218275.6,286047003.9,N
1553218295.4,286047002.8,N
1553218315.3,286047004.1,N
1553218335.1,286047002.6,N
1553218355.8,286047002.8,N
1553218375.7,286046999.7,N
1553218395.5,286047000.9,N
1553218415.4,286047000.9,N
1553218435.2,286047001.1,N
1553218455.0,286046997.0,N
1553218455.9,286046997.0,N
1553218475.8,286046996.7,N
1553218495.6,286046998.8,N
1553218515.4,286046996.9,N
1553218535.3,286047000.7,N
1553218555.1,286047000.8,N
1553218575.9,286046999.5,N
1553218595.7,286046997.2,N
1553218615.5,286046996.5,N
1553218635.4,286046997.8,N
1553218655.2,286046997.9,N
1553218675.0,286046995.5,N
1553218676.0,286046995.5,N
1553218695.8,286046997.1,N
1553218715.6,286046997.0,N
1553218735.5,286046999.0,N
1553218755.3,286046996.7,N
1553218775.1,286046998.3,N
1553218795.9,286046999.5,N
1553218815.7,286047001.1,N
1553218835.6,286046997.3,N
1553218855.4,286046997.6,N
1553218875.2,286046999.1,N
1553218895.1,286046999.3,N
1553218896.0,286046999.3,N
1553218915.8,286046999.5,N
1553218935.6,286046997.1,N
1553218955.5,286046994.9,Y
1553218975.3,286046999.5,P
1553218995.2,286046997.4,P
1553219015.9,286046997.6,N
1553219035.7,286046995.4,Y
1553219055.6,286046998.2,P
1553219075.4,286047000.0,P
1553219095.3,286047002.8,P
1553219115.1,286047003.8,N
1553219116.0,286047003.8,N
1553219135.8,286047003.4,N
1553219155.7,286047007.2,Y
1553219175.5,286047005.3,P
1553219195.4,286047003.9,N
1553219215.2,286047004.0,N
1553219235.0,286047001.4,N
1553219235.9,286047001.4,N
1553219255.8,286047000.1,N
1553219275.6,286047002.0,N
1553219295.4,286047001.9,N
1553219315.3,286047002.5,N
1553219335.1,286046999.8,N
1553219355.9,286047002.8,N
1553219375.7,286047001.6,N
1553219395.5,286047005.5,Y
1553219415.4,286047002.3,P
1553219435.2,286047001.7,P
1553219455.1,286046999.8,N
1553219456.0,286046999.8,N
1553219475.8,286047000.8,N
1553219495.6,286047001.0,N
1553219515.5,286047005.6,Y
1553219535.3,286047004.1,P
1553219555.2,286047001.6,N
1553219575.9,286047004.4,P
1553219595.7,286047001.4,N
1553219615.6,286047005.6,Y
1553219635.4,286047002.3,P
1553219655.2,286046999.7,P
1553219675.1,286047000.1,N
1553219676.0,286047000.1,N
1553219695.8,286046998.1,N
1553219715.7,286046998.9,N
1553219735.5,286046998.5,N
1553219755.3,286046998.5,N
1553219775.2,286046996.6,N
1553219795.0,286046997.3,N
1553219795.9,286046997.3,N
1553219815.7,286046997.1,N
1553219835.6,286046996.6,N
1553219855.4,286046999.3,N
1553219875.3,286046998.7,N
1553219895.1,286047001.2,N
1553219896.0,286047001.2,N
1553219915.8,286047002.4,N
1553219935.7,286046998.7,N
1553219955.5,286046997.0,N
1553219975.3,286046997.7,N
1553219995.2,286046995.1,N
